Location: Torrington
(42.0650°N, 104.1810°W)
Time: 13:24:45
(UTC-06:00)

Daily predictions for brighter satellites

Satellite Brightness Start Highest point End
(mag) Time Altitude Azimuth Time Altitude Azimuth Time Altitude Azimuth
ATLAS CENTAUR R/B 4.2 20:40:48 10° S 20:46:35 52° ESE 21:03:05 10° NE
NOSS 3-2 (C) 3.7 20:42:22 10° S 20:47:56 47° ESE 20:54:03 10° NE
Cosmos 1898 Rocket 4.1 20:47:49 10° N 20:52:54 44° ENE 20:57:58 10° SE
Cosmos 1300 Rocket 4.1 20:50:19 10° NNW 20:54:39 63° W 20:58:55 10° S
H-2A R/B 3.3 20:51:44 10° ESE 20:55:43 25° ENE 20:59:46 10° NNE
Cosmos 1864 Rocket 4.5 20:51:26 10° S 20:57:36 84° E 21:03:45 10° N
YAOGAN 6 3.6 20:55:37 10° S 20:59:11 47° W 21:02:46 10° NNW
Cosmos 1975 3.0 20:56:39 10° N 21:00:39 56° E 21:04:35 10° SSE
Cosmos 304 Rocket 3.8 20:56:23 10° SSW 21:01:11 88° ESE 21:06:02 10° NNE
Cosmos 2208 Rocket 4.0 20:56:07 10° S 21:01:15 66° ESE 21:06:23 10° NNE
ISS -3.2 20:59:08 10° WSW 21:02:22 59° NNW 21:05:37 10° NE
COSMOS 2487 3.8 20:59:15 10° SW 21:02:36 45° WNW 21:06:01 10° N
Atlas Centaur 2 3.2 21:01:03 10° SW 21:02:56 13° S 21:04:45 10° SSE
ATLAS CENTAUR R/B 2.8 21:01:07 10° NW 21:05:23 39° WSW 21:09:50 10° S
Abrixas rocket 2.1 21:03:04 10° SW 21:06:15 64° SSE 21:09:27 10° ENE
Cosmos 1242 Rocket 3.0 21:04:38 10° N 21:08:10 44° ENE 21:11:36 10° SSE
CENTAUR R/B 3.1 21:06:18 10° S 21:11:23 31° ESE 21:17:04 10° NE
Cosmos 990 Rocket 4.5 21:06:58 10° N 21:12:00 46° ENE 21:16:39 12° SE
Meteor 1-19 Rocket 4.5 21:11:26 10° S 21:17:12 58° E 21:23:00 10° NNE
CZ-4B DEB 4.5 21:14:19 10° SSE 21:17:46 67° ENE 21:21:14 10° N
Tiangong 2 1.0 21:15:12 10° WSW 21:18:19 69° SSE 21:21:29 10° E
Timation 2 Rocket 3.8 21:12:47 10° SSW 21:18:42 72° ESE 21:24:45 10° NNE
USA 186 4.3 21:18:46 10° SW 21:21:17 21° W 21:23:54 10° NW
Aureole 2 Rocket 3.8 21:21:55 10° NNE 21:24:11 19° ENE 21:25:34 14° E
ATLAS 3B R/B 3.5 21:17:13 10° SW 21:24:17 59° NW 21:31:06 10° NNE
Meteor 1-12 Rocket 4.4 21:18:52 10° N 21:24:51 85° E 21:30:52 10° S
Cosmos 2360 Rocket 3.3 21:19:56 10° N 21:24:57 32° NE 21:29:12 13° ESE
Cosmos 1666 2.7 21:22:11 10° N 21:26:05 84° W 21:29:57 10° S
Cosmos 1980 Rocket 3.6 21:22:30 10° NW 21:27:37 36° WSW 21:32:43 10° S
deb Kosmos-1763 4.0 21:24:19 10° SSW 21:28:01 89° ESE 21:31:44 10° NNE
Cosmos 2219 Rocket 4.4 21:26:44 10° NNE 21:28:53 12° NE 21:31:02 10° ENE
ERS-2 4.1 21:26:16 10° SSW 21:29:27 27° W 21:32:39 10° NW
Cosmos 292 Rocket 4.3 21:27:25 10° S 21:31:47 37° ESE 21:36:09 10° NE
USA 245 4.2 21:31:45 18° ESE 21:33:47 32° ENE 21:37:35 10° N
Cosmos 1743 3.0 21:32:13 10° NNW 21:36:01 68° W 21:39:46 10° S
Meteor 2-9 Rocket 4.2 21:32:00 10° N 21:37:18 62° ENE 21:41:38 16° SSE
Shenzhou-11 Module 1.9 21:37:47 10° W 21:40:46 85° N 21:42:34 21° E
Cosmos 1455 Rocket 3.2 21:40:09 10° N 21:44:27 56° E 21:47:15 21° SSE
Iridium 2 3.7 21:40:41 10° S 21:44:29 87° W 21:48:21 10° N
Lacrosse 5 rocket 2.8 21:41:10 10° NNW 21:45:03 31° NNE 21:48:08 13° E
Cosmos 2333 Rocket 4.3 21:44:09 10° N 21:47:23 15° NE 21:50:37 10° E
Cosmos 2298 Rocket 4.0 21:43:01 10° NNW 21:48:21 77° ENE 21:52:03 20° SSE
COSMOS 2428 4.3 21:46:30 10° N 21:50:58 23° NE 21:54:36 13° E
MetOp-A 4.2 21:46:59 14° SSE 21:51:36 83° WSW 21:57:00 10° NNW
Cosmos 1937 Rocket 3.5 21:47:11 10° NNW 21:52:19 78° WSW 21:56:08 18° SSE
Cosmos 540 Rocket 4.0 21:50:48 19° SSE 21:54:02 39° ESE 21:58:50 10° NE
Cosmos 1975 Rocket 3.8 21:50:51 10° SSW 21:55:04 52° W 21:59:18 10° N
Meteor 2-4 Rocket 3.6 21:53:08 10° S 21:58:33 88° ESE 22:04:10 10° N
Cosmos 1763 Rocket 3.7 21:53:56 10° SSW 21:59:14 76° WNW 22:04:32 10° NNE
Cosmos 1833 4.2 21:53:54 10° S 21:59:31 59° ESE 22:05:07 10° NNE
USA 32 4.0 21:54:53 10° N 22:00:09 87° E 22:04:03 18° S
Cosmos 841 Rocket 3.4 21:58:41 10° SSW 22:03:55 84° ESE 22:09:13 10° NNE
SL-08 RB Rocket 3.9 22:05:13 20° S 22:08:17 68° WSW 22:12:52 10° NNW
CZ-2C R/B 4.5 22:06:31 19° ESE 22:09:04 26° ENE 22:13:37 10° N
Cosmos 1515 3.6 22:08:08 29° S 22:09:55 70° E 22:13:45 10° NNE
CZ-4C R/B 3.8 22:03:44 10° NNW 22:10:17 38° NE 22:16:04 16° ESE
Cosmos 1340 Rocket 2.9 22:07:29 16° SSW 22:10:37 79° W 22:14:42 10° N
Helios 1A 3.0 22:09:04 32° SE 22:10:51 64° ENE 22:14:59 10° N
Meteor 2-20 Rocket 4.4 22:05:14 10° N 22:11:23 89° W 22:15:43 21° S
Cosmos 1544 Rocket 3.7 22:07:15 10° NNW 22:11:40 72° W 22:14:22 23° S
Landsat 7 4.2 22:10:22 29° SE 22:12:27 48° ENE 22:17:03 10° N
Cosmos 2322 4.0 22:09:56 10° NNW 22:15:36 57° ENE 22:18:28 29° SE
Cosmos 372 Rocket 4.4 22:12:24 10° N 22:17:23 48° ENE 22:19:32 30° ESE
Cosmos 2322 Rocket 3.0 22:13:21 10° NW 22:18:39 43° WSW 22:22:27 18° S
Resurs 01 Rocket 4.4 22:17:54 10° WSW 22:19:26 12° W 22:20:57 10° WNW
ARGOS 4.0 22:15:41 14° SSW 22:20:07 45° W 22:25:19 10° NNW
SPOT 5 2.6 22:19:27 34° SSE 22:21:18 78° ENE 22:25:52 10° N
Cosmos 2237 Rocket 4.3 22:18:37 10° N 22:21:59 16° NE 22:25:20 10° E
SJ 16-02 1.5 22:21:23 10° NNW 22:25:48 63° ENE 22:27:11 40° SE
Okean 2 3.5 22:25:40 43° SE 22:26:38 54° E 22:30:44 10° NNE
USA 234 4.1 22:20:21 10° NE 22:26:42 54° NNW 22:33:02 10° WSW
SL-16 R/B 3.4 22:22:14 10° NW 22:27:20 35° WSW 22:31:11 16° SSW
Cosmos 1356 4.0 22:25:41 25° SSW 22:27:27 55° WNW 22:30:53 10° N
Cosmos 1536 Rocket 3.6 22:25:46 25° SSW 22:28:21 78° W 22:32:50 10° N
ERS-1 Rocket 3.5 22:27:49 22° S 22:30:50 53° W 22:35:46 10° NNW
SPOT 1/Viking Rocket 3.5 22:28:35 32° SSE 22:31:03 89° WSW 22:36:16 10° NNW
Terra 2.2 22:29:39 35° ESE 22:31:11 49° ENE 22:35:47 10° N
H-2A R/B 3.0 22:31:37 17° SSW 22:34:55 39° W 22:39:38 10° NNW
BREEZE M DEB (TANK) 3.1 22:28:50 10° WNW 22:36:20 44° SW 22:37:12 37° SSW
Cosmos 1092 Rocket 4.3 22:31:25 10° N 22:37:38 54° ENE 22:40:11 34° SE
Cosmos 1356 Rocket 3.5 22:37:39 50° SE 22:38:22 58° E 22:42:36 10° NNE
Meteor 1-29 3.0 22:35:49 10° NNE 22:39:12 62° E 22:39:12 62° E
ISS -0.9 22:36:59 10° WNW 22:39:21 18° NNW 22:41:44 10° NE
Nadezhda 4 Rocket 4.0 22:34:54 10° N 22:41:15 83° E 22:44:16 34° SSE
Meteor 1-15 Rocket 4.3 22:36:14 10° NNW 22:41:58 75° W 22:44:42 32° S
Abrixas rocket 4.0 22:39:53 10° W 22:42:50 32° NNW 22:45:48 10° NE
Helios 1B rocket 2.4 22:39:33 10° NNE 22:43:43 86° WNW 22:45:01 43° SSW
Cosmos 2237 4.2 22:38:53 10° NNW 22:44:39 87° WSW 22:46:51 40° SSE
Cosmos 2219 3.7 22:44:49 37° SE 22:45:40 39° ESE 22:50:59 10° NE
Cosmos 1125 Rocket 3.4 22:43:03 10° NNW 22:48:20 83° ENE 22:49:57 46° SSE
Spot 1 3.8 22:50:30 60° S 22:51:14 85° WSW 22:55:19 10° NNW
IGS 5A 3.3 22:50:56 60° S 22:51:40 88° W 22:55:51 10° NNW
Tiangong 2 1.9 22:51:55 10° W 22:54:20 48° WNW 22:54:20 48° WNW
CARTOSAT-1 3.6 22:59:35 56° SSW 23:00:21 72° WSW 23:04:42 10° NNW
CENTAUR R/B 3.4 22:55:46 10° WSW 23:01:38 50° NW 23:08:26 10° NNE
Cosmos 1544 3.3 23:00:14 10° N 23:03:40 63° NE 23:03:40 63° NE
Cosmos 2026 Rocket 4.1 23:02:17 10° N 23:08:23 58° E 23:10:02 44° SE
Cosmos 2360 Rocket 3.1 23:03:48 10° NW 23:08:59 39° WSW 23:10:59 29° SSW
Cosmos 2333 4.1 23:03:30 10° NNW 23:09:12 89° WSW 23:10:42 51° SSE
Cosmos 2279 Rocket 4.4 23:10:53 40° ESE 23:12:08 44° E 23:18:00 10° NNE
NOSS 0 Rocket 4.5 23:06:40 10° NNW 23:12:44 49° ENE 23:14:53 35° ESE
CZ-2C R/B 2.8 23:08:20 10° NNE 23:13:55 62° E 23:14:59 52° SSE
Cosmos 2219 Rocket 2.2 23:08:23 10° NNW 23:13:58 67° ENE 23:15:18 50° ESE
Cosmos 1025 Rocket 3.7 23:15:30 39° SW 23:16:40 50° WNW 23:20:56 10° N
Cosmos 1805 4.3 23:13:37 10° N 23:16:48 35° ENE 23:16:48 35° ENE
Cosmos 1606 Rocket 3.4 23:14:50 10° N 23:19:17 76° E 23:19:27 75° ESE
Cosmos 2142 Rocket 4.4 23:18:42 49° SSE 23:20:24 74° E 23:26:36 10° N
YAOGAN 11 4.3 23:23:02 56° SW 23:23:29 60° WSW 23:27:58 10° NNW
Lacrosse 5 rocket 2.2 23:20:22 10° WNW 23:23:47 39° WSW 23:23:47 39° WSW
Cosmos 2333 Rocket 2.1 23:26:49 10° NNW 23:32:34 83° ENE 23:33:37 61° SE
Cosmos 1953 4.2 23:29:30 10° NNE 23:32:06 21° ENE 23:32:06 21° ENE
Cosmos 1627 Rocket 4.4 23:26:49 10° N 23:33:01 83° W 23:34:35 53° S
COSMOS 2428 2.9 23:30:03 10° NNW 23:35:37 59° WSW 23:36:36 51° SSW
Cosmos 2195 Rocket 4.5 23:29:47 10° N 23:35:54 75° W 23:37:33 50° SSW
SL-16 R/B 3.9 23:33:48 10° N 23:38:19 24° NE 23:40:44 18° E
Cosmos 1634 Rocket 4.2 23:37:30 40° SSW 23:39:51 68° W 23:46:11 10° N
Cosmos 1428 Rocket 4.4 23:34:10 10° N 23:40:18 79° E 23:41:34 58° SSE
H-2A R/B 3.6 23:47:27 25° ENE 23:47:29 25° ENE 23:51:01 10° NNE
CZ-2C R/B 3.8 23:47:35 39° SW 23:48:37 44° W 23:53:56 10° NNW
Cosmos 1980 3.7 23:43:08 10° NNW 23:48:47 68° ENE 23:49:39 59° ESE
Cosmos 1892 Rocket 3.9 23:54:23 59° WNW 23:54:23 59° WNW 23:58:34 10° N
Mayak 0.0 23:52:00 10° NNE 23:54:52 32° ENE 23:54:52 32° ENE
